Retour au catalogue

CZ-4 DEB

ActifSSO
NORAD 26196·DEBRIS·🇨🇳 China

Lancé Oct 14, 1999 depuis Taiyuan Satellite Launch Center

Loading…

Prochains Passages (prochaines 24 heures)

TLE

FraisSource: Space-Track

Époque: Sep 14, 2026, 13:45 UTC

1 26196U 99057CJ  26257.57355720  .00000337  00000-0  24422-3 0  9990
2 26196  98.8814 148.5334 0335941 316.6659 159.1123 13.78929961329341

Suivez CZ-4 DEB en temps réel avec AllMySat

Download on the App Store